Location: Appleton
(44.2618°N, 88.4157°W)
Time: 22:16:41
(UTC+00:00)

Envisat - Visible Passes

Search period start: 22 January 2021 00:00
Search period end: 01 February 2021 00:00
Orbit: 764 x 766 km, 98.1° (Epoch: 22 January)

Date Brightness Start Highest point End Pass type
(mag) Time Alt. Az. Time Alt. Az. Time Alt. Az.
22 Jan 3.6 11:28:34 10° NNE 11:33:37 60° E 11:38:37 10° S visible
23 Jan 6.4 00:27:50 10° WSW 00:29:18 11° W 00:30:47 10° WNW visible
23 Jan 5.0 10:52:15 10° NE 10:56:36 28° E 11:00:55 10° SSE visible
23 Jan 3.5 12:31:01 10° N 12:35:42 38° WNW 12:40:21 10° SW visible
23 Jan 5.6 23:47:56 10° SSW 23:52:04 25° W 23:56:13 10° NW visible
24 Jan 6.1 10:17:09 10° ENE 10:19:23 13° E 10:21:37 10° ESE visible
24 Jan 2.9 11:53:55 10° N 11:59:01 81° WNW 12:04:06 10° SSW visible
25 Jan 4.0 11:17:15 10° NNE 11:22:10 47° E 11:27:03 10° S visible
26 Jan 6.1 00:15:01 10° WSW 00:17:45 14° W 00:20:29 10° NW visible
26 Jan 5.4 10:41:09 10° NE 10:45:06 22° E 10:49:00 10° SE visible
26 Jan 3.2 12:19:28 10° N 12:24:21 47° WNW 12:29:12 10° SW visible
26 Jan 5.2 23:36:06 10° SSW 23:40:34 31° W 23:45:04 10° NNW visible
27 Jan 3.1 11:42:30 10° NNE 11:47:37 82° ESE 11:52:42 10° SSW visible
28 Jan 4.5 11:05:58 10° NNE 11:10:42 37° E 11:15:23 10° SSE visible
29 Jan 6.0 00:02:44 10° SW 00:06:12 18° W 00:09:41 10° NW visible
29 Jan 5.7 10:30:10 10° NE 10:33:34 18° E 10:36:57 10° SE visible
29 Jan 3.0 12:07:58 10° N 12:12:59 60° WNW 12:17:58 10° SSW visible
29 Jan 4.7 23:24:21 10° SSW 23:29:05 39° W 23:33:50 10° NNW visible
30 Jan 3.4 11:31:08 10° NNE 11:36:12 65° ESE 11:41:14 10° S visible
31 Jan 6.6 00:31:32 10° W 00:31:56 10° W 00:32:20 10° W visible
31 Jan 4.9 10:54:45 10° NE 10:59:13 30° E 11:03:38 10° SSE visible
31 Jan 3.6 12:33:39 10° N 12:38:15 35° WNW 12:42:50 10° SW visible
31 Jan 5.7 23:50:42 10° SW 23:54:40 23° W 23:58:41 10° NW visible
